Location: Gellin
(53.4498°N, 14.3207°E)
Time: 22:44:45
(UTC+00:00)

ASTEX 1 - Pass Details

Date: 03 March 2021
Orbit: 720 x 743 km, 92.7° (Epoch: 12 April)

Event Time Altitude Azimuth Distance (km) Brightness Sun altitude
Rises 19:18:24 0° 4° (N) 3,155 6.9 -23.3°
Reaches altitude 10° 19:20:42 10° 2° (N) 2,227 6.1 -23.6°
Maximum altitude 19:25:36 71° 280° (W) 767 3.6 -24.3°
Enters shadow 19:30:13 11° 197° (SSW) 2,116 5.7 -24.9°
